timestamp,wind_dir_avg,wind_spd_avg,wind_spd_max_dir,wind_spd_gust,battery_voltage,lat,long
2024-02-17 00:04:01+00:00,282.0,4.44,286.0,4.85,12.25,47.59359,-54.27349
2024-02-17 00:14:00+00:00,286.0,8.14,285.0,9.98,12.17,47.59359,-54.27349
2024-02-17 00:24:00+00:00,306.0,6.48,300.0,7.77,12.17,47.59359,-54.27349
2024-02-17 00:34:00+00:00,315.0,0.01,305.0,0.0,12.17,47.59359,-54.27349
2024-02-17 00:44:00+00:00,300.0,3.23,315.0,4.04,12.17,47.59359,-54.27349
2024-02-17 00:54:00+00:00,297.0,2.98,304.0,3.42,12.17,47.59359,-54.27349
2024-02-17 01:04:00+00:00,315.0,0.01,285.0,0.0,12.17,47.59359,-54.27349
2024-02-17 01:14:00+00:00,315.0,0.01,292.0,0.0,12.17,47.59359,-54.27349
2024-02-17 01:24:00+00:00,315.0,0.01,309.0,0.0,12.17,47.59359,-54.27349
2024-02-17 01:34:00+00:00,314.0,5.75,315.0,5.9,12.17,47.59359,-54.27349
2024-02-17 01:44:00+00:00,324.0,4.95,313.0,5.79,12.17,47.59359,-54.27349
2024-02-17 01:54:00+00:00,321.0,5.18,320.0,5.83,12.17,47.59359,-54.27349
2024-02-17 02:04:00+00:00,312.0,4.9,311.0,5.69,12.17,47.59359,-54.27349
2024-02-17 02:14:00+00:00,321.0,5.85,320.0,6.76,12.17,47.59359,-54.27349
2024-02-17 02:24:00+00:00,321.0,5.05,324.0,5.58,12.17,47.59359,-54.27349
2024-02-17 02:34:00+00:00,327.0,4.89,329.0,5.62,12.17,47.59359,-54.27349
2024-02-17 02:44:00+00:00,327.0,6.82,321.0,7.81,12.17,47.59359,-54.27349
2024-02-17 02:54:00+00:00,355.0,5.65,357.0,6.13,12.17,47.59359,-54.27349
2024-02-17 03:04:00+00:00,318.0,6.91,313.0,7.74,12.17,47.59359,-54.27349
2024-02-17 03:14:00+00:00,316.0,7.69,318.0,8.59,12.17,47.59359,-54.27349
2024-02-17 03:24:00+00:00,323.0,8.89,325.0,10.01,12.17,47.59359,-54.27349
2024-02-17 03:34:00+00:00,321.0,7.55,315.0,9.07,12.17,47.59359,-54.27349
2024-02-17 03:44:00+00:00,324.0,8.39,323.0,10.05,12.17,47.59359,-54.27349
2024-02-17 03:54:00+00:00,336.0,8.29,333.0,9.46,12.17,47.59359,-54.27349
2024-02-17 04:04:00+00:00,321.0,7.71,316.0,9.03,12.17,47.59359,-54.27349
2024-02-17 04:14:00+00:00,328.0,9.3,327.0,10.56,12.09,47.59359,-54.27349
2024-02-17 04:24:00+00:00,349.0,8.49,334.0,10.59,12.09,47.59359,-54.27349
2024-02-17 04:34:00+00:00,353.0,7.23,325.0,8.37,12.09,47.59359,-54.27349
2024-02-17 04:44:00+00:00,355.0,7.43,356.0,8.97,12.09,47.59359,-54.27349
2024-02-17 04:54:00+00:00,335.0,7.94,330.0,10.41,12.09,47.59359,-54.27349
2024-02-17 05:04:00+00:00,351.0,7.71,341.0,9.12,12.09,47.59359,-54.27349
2024-02-17 05:14:00+00:00,357.0,8.01,335.0,9.18,12.09,47.59359,-54.27349
2024-02-17 05:24:00+00:00,348.0,7.03,326.0,9.09,12.09,47.59359,-54.27349
2024-02-17 05:34:00+00:00,337.0,6.67,325.0,8.79,12.09,47.59359,-54.27349
2024-02-17 05:44:00+00:00,321.0,8.24,322.0,9.35,12.09,47.59359,-54.27349
2024-02-17 05:54:00+00:00,319.0,8.03,324.0,9.66,12.09,47.59359,-54.27349
2024-02-17 06:04:00+00:00,329.0,8.57,329.0,9.84,12.09,47.59359,-54.27349
2024-02-17 06:14:00+00:00,325.0,8.55,320.0,9.53,12.09,47.59359,-54.27349
2024-02-17 06:24:00+00:00,336.0,6.1,321.0,8.1,12.09,47.59359,-54.27349
2024-02-17 06:34:00+00:00,332.0,6.07,329.0,8.28,12.09,47.59359,-54.27349
2024-02-17 06:44:00+00:00,341.0,5.15,345.0,6.21,12.09,47.59359,-54.27349
2024-02-17 06:54:00+00:00,328.0,6.68,321.0,8.46,12.09,47.59359,-54.27349
2024-02-17 07:04:00+00:00,318.0,7.25,317.0,8.6,12.09,47.59359,-54.27349
2024-02-17 07:14:01+00:00,329.0,7.09,322.0,8.25,12.09,47.59359,-54.27349
2024-02-17 07:24:01+00:00,328.0,7.7,322.0,8.72,12.09,47.59359,-54.27349
2024-02-17 07:34:01+00:00,324.0,8.33,324.0,9.62,12.09,47.59359,-54.27349
2024-02-17 07:44:01+00:00,321.0,7.43,311.0,8.96,12.09,47.59359,-54.27349
2024-02-17 07:54:01+00:00,320.0,8.27,317.0,10.01,12.09,47.59359,-54.27349
2024-02-17 08:04:01+00:00,310.0,9.37,314.0,10.55,12.09,47.59359,-54.27349
2024-02-17 08:14:01+00:00,312.0,7.33,311.0,8.87,12.09,47.59359,-54.27349
2024-02-17 08:24:01+00:00,314.0,7.7,308.0,9.95,12.09,47.59359,-54.27349
2024-02-17 08:34:01+00:00,314.0,6.7,324.0,8.55,12.09,47.59359,-54.27349
2024-02-17 08:44:01+00:00,308.0,4.72,291.0,7.2,12.09,47.59359,-54.27349
2024-02-17 08:54:01+00:00,290.0,6.39,280.0,8.17,12.09,47.59359,-54.27349
2024-02-17 09:04:01+00:00,294.0,7.05,290.0,9.37,12.09,47.59359,-54.27349
2024-02-17 09:14:01+00:00,292.0,5.25,281.0,9.04,12.01,47.59359,-54.27349
2024-02-17 09:24:01+00:00,284.0,6.28,281.0,9.89,12.01,47.59359,-54.27349
2024-02-17 09:34:01+00:00,301.0,7.49,302.0,9.37,12.01,47.59359,-54.27349
2024-02-17 09:44:01+00:00,302.0,4.34,297.0,8.03,12.01,47.59359,-54.27349
2024-02-17 09:54:01+00:00,313.0,4.39,300.0,7.82,12.01,47.59359,-54.27349
2024-02-17 10:04:01+00:00,290.0,3.96,302.0,5.32,12.01,47.59359,-54.27349
2024-02-17 10:14:00+00:00,291.0,3.33,288.0,5.17,12.01,47.59359,-54.27349
2024-02-17 10:24:00+00:00,323.0,3.87,307.0,5.5,12.01,47.59359,-54.27349
2024-02-17 10:34:00+00:00,309.0,3.31,306.0,5.18,12.01,47.59359,-54.27349
2024-02-17 10:44:00+00:00,305.0,4.58,311.0,5.66,12.01,47.59359,-54.27349
2024-02-17 10:54:00+00:00,290.0,4.04,300.0,5.27,12.01,47.59359,-54.27349
2024-02-17 11:04:00+00:00,277.0,4.0,274.0,7.61,12.01,47.59359,-54.27349
2024-02-17 11:14:00+00:00,304.0,3.2,284.0,7.33,12.33,47.59359,-54.27349
2024-02-17 11:24:00+00:00,299.0,3.18,295.0,5.04,12.33,47.59359,-54.27349
2024-02-17 11:34:00+00:00,288.0,6.24,298.0,9.02,12.33,47.59359,-54.27349
2024-02-17 11:44:00+00:00,302.0,5.99,293.0,8.04,12.33,47.59359,-54.27349
2024-02-17 11:54:00+00:00,285.0,8.82,284.0,13.06,12.33,47.59359,-54.27349
2024-02-17 12:04:00+00:00,293.0,9.06,285.0,14.78,12.33,47.59359,-54.27349
2024-02-17 12:14:01+00:00,298.0,8.15,301.0,9.24,14.48,47.59359,-54.27349
2024-02-17 12:24:01+00:00,316.0,5.72,301.0,8.53,14.48,47.59359,-54.27349
2024-02-17 12:34:01+00:00,298.0,5.12,287.0,7.67,14.48,47.59359,-54.27349
2024-02-17 12:44:01+00:00,269.0,4.38,260.0,7.74,14.48,47.59359,-54.27349
2024-02-17 12:54:01+00:00,308.0,7.4,300.0,9.57,14.48,47.59359,-54.27349
2024-02-17 13:04:01+00:00,277.0,10.74,285.0,14.14,14.48,47.59359,-54.27349
2024-02-17 13:14:00+00:00,290.0,8.31,282.0,13.01,13.6,47.59359,-54.27349
2024-02-17 13:24:00+00:00,276.0,12.11,278.0,14.43,13.6,47.59359,-54.27349
2024-02-17 13:34:00+00:00,293.0,9.95,288.0,13.36,13.6,47.59359,-54.27349
2024-02-17 13:44:00+00:00,289.0,11.54,289.0,15.01,13.6,47.59359,-54.27349
2024-02-17 13:54:00+00:00,284.0,7.13,279.0,12.39,13.6,47.59359,-54.27349
2024-02-17 14:04:00+00:00,276.0,8.71,274.0,13.07,13.6,47.59359,-54.27349
2024-02-17 14:14:00+00:00,271.0,6.08,280.0,9.22,13.68,47.59359,-54.27349
2024-02-17 14:24:00+00:00,284.0,7.16,287.0,8.08,13.68,47.59359,-54.27349
2024-02-17 14:34:00+00:00,277.0,9.43,279.0,13.67,13.68,47.59359,-54.27349
2024-02-17 14:44:00+00:00,276.0,8.31,272.0,12.98,13.68,47.59359,-54.27349
2024-02-17 14:54:00+00:00,275.0,8.83,269.0,12.83,13.68,47.59359,-54.27349
2024-02-17 15:04:00+00:00,268.0,13.09,266.0,14.4,13.68,47.59359,-54.27349
2024-02-17 15:14:00+00:00,262.0,12.72,266.0,14.52,13.68,47.59359,-54.27349
2024-02-17 15:24:00+00:00,270.0,12.18,272.0,14.65,13.68,47.59359,-54.27349
2024-02-17 15:34:00+00:00,261.0,12.92,258.0,14.5,13.68,47.59359,-54.27349
2024-02-17 15:44:00+00:00,270.0,11.27,266.0,14.14,13.68,47.59359,-54.27349
2024-02-17 15:54:00+00:00,269.0,12.21,273.0,13.89,13.68,47.59359,-54.27349
2024-02-17 16:04:00+00:00,271.0,13.23,272.0,14.21,13.68,47.59359,-54.27349
2024-02-17 16:14:00+00:00,273.0,12.46,279.0,14.04,13.53,47.59359,-54.27349
2024-02-17 16:24:00+00:00,273.0,7.97,267.0,12.29,13.53,47.59359,-54.27349
2024-02-17 16:34:00+00:00,266.0,11.11,267.0,14.39,13.53,47.59359,-54.27349
2024-02-17 16:44:00+00:00,279.0,12.16,281.0,14.09,13.53,47.59359,-54.27349
2024-02-17 16:54:00+00:00,268.0,11.29,270.0,13.45,13.53,47.59359,-54.27349
2024-02-17 17:04:00+00:00,280.0,11.5,279.0,14.01,13.53,47.59359,-54.27349
2024-02-17 17:14:01+00:00,261.0,11.53,263.0,13.23,13.44,47.59359,-54.27349
2024-02-17 17:24:01+00:00,265.0,11.86,268.0,13.19,13.44,47.59359,-54.27349
2024-02-17 17:34:01+00:00,284.0,11.56,289.0,14.01,13.44,47.59359,-54.27349
2024-02-17 17:44:01+00:00,271.0,11.06,272.0,12.88,13.44,47.59359,-54.27349
2024-02-17 17:54:01+00:00,261.0,11.82,264.0,13.91,13.44,47.59359,-54.27349
2024-02-17 18:04:01+00:00,264.0,9.9,258.0,12.84,13.44,47.59359,-54.27349
2024-02-17 18:14:00+00:00,270.0,10.24,267.0,11.07,13.44,47.59359,-54.27349
2024-02-17 18:24:00+00:00,272.0,9.83,272.0,10.84,13.44,47.59359,-54.27349
2024-02-17 18:34:00+00:00,278.0,10.86,278.0,11.15,13.44,47.59359,-54.27349
2024-02-17 18:44:00+00:00,261.0,8.59,259.0,10.28,13.44,47.59359,-54.27349
2024-02-17 18:54:00+00:00,276.0,10.42,280.0,11.08,13.44,47.59359,-54.27349
2024-02-17 19:04:00+00:00,271.0,10.1,276.0,10.81,13.44,47.59359,-54.27349
2024-02-17 19:14:00+00:00,259.0,10.81,259.0,12.86,13.37,47.59359,-54.27349
2024-02-17 19:24:00+00:00,255.0,10.0,245.0,13.81,13.37,47.59359,-54.27349
2024-02-17 19:34:00+00:00,245.0,11.29,242.0,12.21,13.37,47.59359,-54.27349
2024-02-17 19:44:00+00:00,258.0,10.35,261.0,11.43,13.37,47.59359,-54.27349
2024-02-17 19:54:00+00:00,271.0,12.91,274.0,14.11,13.37,47.59359,-54.27349
2024-02-17 20:04:00+00:00,259.0,10.44,256.0,11.38,13.37,47.59359,-54.27349
2024-02-17 20:14:00+00:00,259.0,14.31,257.0,16.31,12.97,47.59359,-54.27349
2024-02-17 20:24:00+00:00,258.0,9.96,257.0,11.45,12.97,47.59359,-54.27349
2024-02-17 20:34:00+00:00,252.0,11.28,252.0,13.45,12.97,47.59359,-54.27349
2024-02-17 20:44:00+00:00,266.0,9.39,264.0,10.25,12.97,47.59359,-54.27349
2024-02-17 20:54:00+00:00,267.0,12.2,261.0,13.62,12.97,47.59359,-54.27349
2024-02-17 21:04:00+00:00,261.0,13.36,254.0,15.4,12.97,47.59359,-54.27349
2024-02-17 21:14:00+00:00,270.0,10.01,267.0,10.25,12.41,47.59359,-54.27349
2024-02-17 21:24:00+00:00,253.0,10.66,251.0,11.59,12.41,47.59359,-54.27349
2024-02-17 21:34:00+00:00,264.0,9.95,256.0,13.15,12.41,47.59359,-54.27349
2024-02-17 21:44:00+00:00,266.0,10.21,258.0,11.68,12.41,47.59359,-54.27349
2024-02-17 21:54:00+00:00,258.0,12.49,257.0,13.29,12.41,47.59359,-54.27349
2024-02-17 22:04:00+00:00,256.0,10.53,249.0,13.57,12.41,47.59359,-54.27349
2024-02-17 22:14:01+00:00,261.0,13.75,261.0,15.51,12.25,47.59359,-54.27349
2024-02-17 22:24:01+00:00,255.0,12.38,252.0,14.3,12.25,47.59359,-54.27349
2024-02-17 22:34:01+00:00,256.0,10.36,252.0,11.57,12.25,47.59359,-54.27349
2024-02-17 22:44:01+00:00,261.0,13.25,267.0,15.3,12.25,47.59359,-54.27349
2024-02-17 22:54:01+00:00,255.0,13.27,254.0,15.18,12.25,47.59359,-54.27349
2024-02-17 23:04:01+00:00,258.0,11.72,263.0,14.89,12.25,47.59359,-54.27349
2024-02-17 23:14:00+00:00,256.0,13.03,254.0,15.36,12.17,47.59359,-54.27349
2024-02-17 23:24:00+00:00,253.0,13.07,250.0,15.24,12.17,47.59359,-54.27349
2024-02-17 23:34:00+00:00,261.0,14.17,262.0,16.85,12.17,47.59359,-54.27349
2024-02-17 23:44:00+00:00,251.0,10.85,249.0,13.36,12.17,47.59359,-54.27349
2024-02-17 23:54:00+00:00,251.0,12.83,254.0,15.99,12.17,47.59359,-54.27349
